Weather History for Gustavus, AK

Change the Weather History Date:

Monday, June 24, 2013

  Actual Average Record
Temperature  
Mean Temperature 64 °F -  
Max Temperature 82 °F 60 °F 82 °F (2013)
Min Temperature 46 °F 47 °F 37 °F (1999)
Degree Days  
Heating Degree Days 1    
Growing Degree Days 14 (Base 50)    
Moisture  
Dew Point 49 °F    
Average Humidity 61    
Maximum Humidity 93    
Minimum Humidity 28    
Precipitation  
Precipitation 0.00 in - - ()
Sea Level Pressure  
Sea Level Pressure 29.53 in    
Wind  
Wind Speed 2 mph (West)    
Max Wind Speed 16 mph    
Max Gust Speed 20 mph    
Visibility 10 miles    
Events      
Averages and records for this station are not official NWS values.
T = Trace of Precipitation, MM = Missing Value Source: NWS Daily Summary

Daily Weather History Graph

Daily Weather History Graph

Search for Another Location

Airport:

Trip Planner

Search our weather history database for the weather conditions in past years. The results will help you decide how hot, cold, wet, or windy it might be!

Date:

Astronomy

Jun. 24, 2013 Rise Set
Actual Time 3:56 AM AKDT 10:14 PM AKDT
Civil Twilight 2:36 AM AKDT 11:33 PM AKDT
Nautical Twilight Sun does not rise Sun does not rise
Astronomical Twilight Sun does not rise Sun does not rise
Moon 10:39 PM AKDT (6/24) 6:05 AM AKDT (6/24)
Length of Visible Light 20h 57m
Length of Day
18h 17m
Full, 97% of the Moon is Illuminated
Jun 24
Full
Jun 29
Last Quarter
Jul 7
New
Jul 15
First Quarter
Jul 22
Full

Hourly Weather History & Observations

Time (AKDT) Temp. Windchill Dew Point Humidity Pressure Visibility Wind Dir Wind Speed Gust Speed Precip Events Conditions
12:16 AM 55.4 °F - 48.2 °F 77% 29.64 in 10.0 mi Calm Calm - N/A   Clear
12:36 AM 53.6 °F - 48.2 °F 82% 29.63 in 10.0 mi Calm Calm - N/A   Clear
12:56 AM 55.4 °F - 48.2 °F 77% 29.63 in 10.0 mi Calm Calm - N/A   Clear
1:16 AM 53.6 °F - 48.2 °F 82% 29.64 in 10.0 mi Calm Calm - N/A   Clear
1:36 AM 51.8 °F - 48.2 °F 88% 29.64 in 10.0 mi Calm Calm - N/A   Clear
1:56 AM 51.8 °F - 46.4 °F 82% 29.63 in 10.0 mi Calm Calm - N/A   Clear
2:16 AM 51.8 °F - 46.4 °F 82% 29.63 in 10.0 mi Calm Calm - N/A   Clear
2:36 AM 51.8 °F - 46.4 °F 82% 29.63 in 10.0 mi Calm Calm - N/A   Clear
2:56 AM 50.0 °F - 46.4 °F 87% 29.62 in 10.0 mi Calm Calm - N/A   Clear
3:16 AM 48.2 °F - 46.4 °F 93% 29.62 in 10.0 mi Calm Calm - N/A   Clear
3:36 AM 48.2 °F - 46.4 °F 93% 29.62 in 10.0 mi Calm Calm - N/A   Clear
3:56 AM 48.2 °F - 44.6 °F 87% 29.61 in 10.0 mi Calm Calm - N/A   Clear
4:16 AM 48.2 °F - 44.6 °F 87% 29.61 in 10.0 mi Calm Calm - N/A   Clear
4:36 AM 46.4 °F 45.2 °F 44.6 °F 93% 29.61 in 10.0 mi North 3.5 mph - N/A   Clear
4:56 AM 46.4 °F - 44.6 °F 93% 29.60 in 10.0 mi Calm Calm - N/A   Clear
5:16 AM 48.2 °F - 44.6 °F 87% 29.60 in 10.0 mi Calm Calm - N/A   Clear
5:36 AM 48.2 °F - 46.4 °F 93% 29.60 in 10.0 mi Calm Calm - N/A   Clear
5:56 AM 51.8 °F - 46.4 °F 82% 29.60 in 10.0 mi Calm Calm - N/A   Clear
6:16 AM 51.8 °F - 48.2 °F 88% 29.60 in 10.0 mi Calm Calm - N/A   Clear
6:36 AM 53.6 °F - 48.2 °F 82% 29.59 in 10.0 mi Calm Calm - N/A   Clear
6:56 AM 55.4 °F - 48.2 °F 77% 29.58 in 10.0 mi Calm Calm - N/A   Clear
7:16 AM 57.2 °F - 48.2 °F 72% 29.59 in 10.0 mi Calm Calm - N/A   Clear
7:36 AM 59.0 °F - 50.0 °F 72% 29.58 in 10.0 mi Calm Calm - N/A   Clear
7:56 AM - - - N/A% 29.57 in 10.0 mi Calm Calm - N/A   Clear
8:16 AM 60.8 °F - 51.8 °F 72% 29.58 in 10.0 mi Calm Calm - N/A   Clear
8:36 AM - - - N/A% 29.56 in 10.0 mi Calm Calm - N/A   Clear
8:56 AM - - - N/A% 29.56 in 10.0 mi Calm Calm - N/A   Clear
9:16 AM - - - N/A% 29.55 in 10.0 mi WSW 5.8 mph - N/A   Clear
9:36 AM - - - N/A% 29.55 in 10.0 mi SW 4.6 mph - N/A   Clear
9:56 AM - - - N/A% 29.54 in 10.0 mi SSW 4.6 mph - N/A   Partly Cloudy
10:16 AM - - - N/A% 29.54 in 10.0 mi Calm Calm - N/A   Scattered Clouds
10:36 AM 66.2 °F - 51.8 °F 60% 29.53 in 10.0 mi SW 3.5 mph - N/A   Scattered Clouds
10:56 AM 68.0 °F - 53.6 °F 60% 29.53 in 10.0 mi Calm Calm - N/A   Clear
11:16 AM 68.0 °F - 53.6 °F 60% 29.53 in 10.0 mi SSW 6.9 mph - N/A   Clear
11:36 AM 68.0 °F - 51.8 °F 56% 29.53 in 10.0 mi SSW 5.8 mph - N/A   Clear
11:56 AM 69.8 °F - 51.8 °F 53% 29.53 in 10.0 mi SW 5.8 mph - N/A   Clear
12:16 PM 69.8 °F - 50.0 °F 49% 29.52 in 10.0 mi SW 4.6 mph - N/A   Clear
12:36 PM 71.6 °F - 50.0 °F 46% 29.52 in 10.0 mi Calm Calm - N/A   Clear
12:56 PM 71.6 °F - 50.0 °F 46% 29.51 in 10.0 mi WSW 4.6 mph - N/A   Clear
1:16 PM 71.6 °F - 50.0 °F 46% 29.50 in 10.0 mi SSW 6.9 mph - N/A   Clear
1:36 PM 73.4 °F - 50.0 °F 44% 29.50 in 10.0 mi SW 5.8 mph - N/A   Clear
1:56 PM 73.4 °F - 48.2 °F 41% 29.49 in 10.0 mi SSW 8.1 mph - N/A   Clear
2:16 PM 73.4 °F - 48.2 °F 41% 29.49 in 10.0 mi South 5.8 mph - N/A   Clear
2:36 PM 73.4 °F - 46.4 °F 38% 29.49 in 10.0 mi South 8.1 mph - N/A   Clear
2:56 PM 73.4 °F - 48.2 °F 41% 29.48 in 10.0 mi SSW 4.6 mph - N/A   Clear
3:16 PM 75.2 °F - 50.0 °F 41% 29.48 in 10.0 mi South 4.6 mph - N/A   Clear
3:36 PM 75.2 °F - 50.0 °F 41% 29.47 in 10.0 mi SSE 4.6 mph - N/A   Clear
3:56 PM 77.0 °F - 50.0 °F 39% 29.45 in 10.0 mi Calm Calm - N/A   Clear
4:16 PM 80.6 °F - 46.4 °F 30% 29.45 in 10.0 mi NW 9.2 mph 16.1 mph N/A   Clear
4:36 PM 82.4 °F - 46.4 °F 28% 29.44 in 10.0 mi NW 9.2 mph - N/A   Clear
4:56 PM 80.6 °F - 46.4 °F 30% 29.44 in 10.0 mi NW 13.8 mph - N/A   Clear
5:16 PM 82.4 °F - 46.4 °F 28% 29.44 in 10.0 mi NW 10.4 mph - N/A   Partly Cloudy
5:36 PM 82.4 °F - 46.4 °F 28% 29.43 in 10.0 mi NW 16.1 mph 19.6 mph N/A   Partly Cloudy
5:56 PM 80.6 °F - 46.4 °F 30% 29.44 in 10.0 mi NW 11.5 mph 16.1 mph N/A   Clear
6:16 PM 78.8 °F - 44.6 °F 30% 29.45 in 10.0 mi NW 5.8 mph - N/A   Clear
6:36 PM 78.8 °F - 46.4 °F 32% 29.45 in 10.0 mi WNW 6.9 mph - N/A   Clear
6:56 PM 77.0 °F - 46.4 °F 34% 29.46 in 10.0 mi NW 6.9 mph - N/A   Scattered Clouds
7:16 PM 75.2 °F - 46.4 °F 36% 29.47 in 10.0 mi North 4.6 mph - N/A   Overcast
7:36 PM 73.4 °F - 51.8 °F 47% 29.47 in 10.0 mi East 4.6 mph - N/A   Overcast
7:56 PM 68.0 °F - 51.8 °F 56% 29.48 in 10.0 mi SE 3.5 mph - N/A   Overcast
8:16 PM 66.2 °F - 55.4 °F 68% 29.46 in 10.0 mi Calm Calm - N/A   Mostly Cloudy
8:36 PM 66.2 °F - 57.2 °F 73% 29.45 in 10.0 mi NNW 5.8 mph - N/A   Clear
8:56 PM 66.2 °F - 55.4 °F 68% 29.45 in 10.0 mi NNW 5.8 mph - N/A   Clear
9:16 PM 69.8 °F - 53.6 °F 56% 29.44 in 10.0 mi NW 9.2 mph - N/A   Clear
9:36 PM 71.6 °F - 53.6 °F 53% 29.44 in 10.0 mi NW 5.8 mph - N/A   Clear
9:56 PM 71.6 °F - 53.6 °F 53% 29.45 in 10.0 mi WNW 3.5 mph - N/A   Clear
10:16 PM 69.8 °F - 55.4 °F 60% 29.48 in 10.0 mi East 9.2 mph - N/A   Clear
10:36 PM 68.0 °F - 53.6 °F 60% 29.47 in 10.0 mi Calm Calm - N/A   Clear
10:56 PM 66.2 °F - 53.6 °F 64% 29.48 in 10.0 mi ENE 4.6 mph - N/A   Partly Cloudy
11:16 PM 66.2 °F - 53.6 °F 64% 29.48 in 10.0 mi NNW 5.8 mph - N/A   Clear
11:36 PM 66.2 °F - 51.8 °F 60% 29.47 in 10.0 mi NW 8.1 mph - N/A   Clear
11:56 PM 66.2 °F - 53.6 °F 64% 29.47 in 10.0 mi North 8.1 mph - N/A   Clear